Weather reports worldwide

Advertisment
Bournemouth Airport, United Kingdom (3862): temperature & dewpoint: 17.10.2017 03:00:00 - 23.10.2017 03:00:00 (BST)Bournemouth Airport, United Kingdom (3862): temperature -20cm & temperature -100cm: 17.10.2017 03:00:00 - 23.10.2017 03:00:00 (BST)Bournemouth Airport, United Kingdom (3862): wind speed & gusts: 17.10.2017 03:00:00 - 23.10.2017 03:00:00 (BST)Bournemouth Airport, United Kingdom (3862): wind direction: 17.10.2017 03:00:00 - 23.10.2017 03:00:00 (BST)Bournemouth Airport, United Kingdom (3862): reduced air pressure: 17.10.2017 03:00:00 - 23.10.2017 03:00:00 (BST)Bournemouth Airport, United Kingdom (3862): visibility: 17.10.2017 03:00:00 - 23.10.2017 03:00:00 (BST)Bournemouth Airport, United Kingdom (3862): sunshine duration: 17.10.2017 03:00:00 - 23.10.2017 03:00:00 (BST)Bournemouth Airport, United Kingdom (3862): precipitation: 17.10.2017 03:00:00 - 23.10.2017 03:00:00 (BST)
Date & Time tt [°C] td [°C] tt -20cm [°C] tt -100cm [°C] ff [km/h] ff [kn] fx [km/h] fx [kn] dd ppp [hPa] vv [km] sd [min] rr [mm]
23.10.2017 03:00:00 11,4 9,9 - - 9 5 - - W 1019,4 22 0 0,0
23.10.2017 02:00:00 10,8 9,1 - - 11 6 - - WSW 1019,5 22 0 0,0
23.10.2017 01:00:00 10,6 8,9 - - 11 6 - - WSW 1019,8 24 - 0,0
23.10.2017 00:00:00 11,4 9,0 - - 16 9 - - W 1020,2 25 0 0,0
22.10.2017 23:00:00 11,2 8,7 - - 18 10 - - W 1020,3 26 0 0,0
22.10.2017 22:00:00 10,9 8,4 - - 16 9 - - W 1020,2 10 0 0,0
22.10.2017 21:00:00 11,2 8,3 - - 16 9 - - W 1019,9 10 0 -
22.10.2017 20:00:00 11,6 8,3 - - 21 11 - - W 1019,4 10 0 0,0
22.10.2017 19:00:00 11,2 8,9 - - 21 11 - - W 1018,7 10 0 0,0
22.10.2017 18:00:00 10,9 9,3 - - 16 9 - - W 1018,1 10 0 0,0
22.10.2017 17:00:00 11,5 10,0 - - 18 10 - - NW 1017,8 10 6 0,4
22.10.2017 16:00:00 11,4 9,9 - - 28 15 - - WNW 1017,9 8 24 0,8
22.10.2017 15:00:00 11,8 9,5 - - 21 11 - - WNW 1017,5 10 6 0,2
22.10.2017 14:00:00 11,8 8,5 - - 22 12 - - WNW 1017,2 10 18 0,0
22.10.2017 13:00:00 11,8 7,8 - - 18 10 - - WNW 1016,8 10 6 0,0
22.10.2017 12:00:00 12,0 6,4 - - 21 11 - - WNW 1016,5 10 6 0,0
22.10.2017 11:00:00 11,6 6,0 - - 28 15 48 26 WNW 1015,7 10 48 0,0
22.10.2017 10:00:00 10,4 5,8 13,5 14,0 24 13 - - W 1015,4 10 30 0,0
22.10.2017 09:00:00 8,8 6,0 - - 16 9 - - W 1014,9 10 0 0,0
22.10.2017 08:00:00 8,1 5,6 - - 18 10 - - W 1014,0 10 0 0,0
22.10.2017 07:00:00 8,7 6,2 - - 24 13 50 27 W 1013,7 10 0 0,0
22.10.2017 06:00:00 9,6 5,5 - - 35 19 - - W 1013,1 10 0 0,0
22.10.2017 05:00:00 9,7 6,4 - - 26 14 - - W 1012,0 22 0 0,0
22.10.2017 04:00:00 10,0 6,7 - - 29 16 - - W 1011,2 20 0 -
22.10.2017 03:00:00 10,0 6,4 - - 28 15 50 27 W 1010,3 25 0 0,0
22.10.2017 02:00:00 11,2 7,7 - - 29 16 57 31 W 1009,7 23 0 0,0
22.10.2017 01:00:00 11,1 8,4 - - 34 18 55 30 W 1008,6 10 - 0,0
22.10.2017 00:00:00 11,4 7,9 - - 34 18 50 27 W 1007,7 10 0 0,0
21.10.2017 23:00:00 11,5 8,3 - - 34 18 54 29 W 1007,1 10 0 0,0
21.10.2017 22:00:00 11,7 8,7 - - 35 19 59 32 W 1006,1 10 0 0,0
21.10.2017 21:00:00 12,1 10,0 - - 31 17 54 29 W 1005,1 10 0 0,0
21.10.2017 20:00:00 11,7 10,4 - - 35 19 70 38 WSW 1004,1 10 0 0,6
21.10.2017 19:00:00 11,7 9,3 - - 37 20 59 32 WSW 1003,5 10 0 0,4
21.10.2017 18:00:00 11,8 9,8 - - 31 17 72 39 W 1003,4 7 0 0,6
21.10.2017 17:00:00 13,2 8,6 - - 44 24 70 38 WSW 1003,3 10 18 0,0
21.10.2017 16:00:00 13,5 8,8 - - 48 26 74 40 WSW 1003,5 10 12 0,2
21.10.2017 15:00:00 13,7 8,6 - - 42 23 72 39 WSW 1003,1 10 30 0,2
21.10.2017 14:00:00 13,1 9,9 - - 44 24 81 44 WSW 1003,1 8 12 0,0
21.10.2017 13:00:00 14,3 9,8 - - 39 21 67 36 WSW 1003,0 9 30 0,6
21.10.2017 12:00:00 14,6 9,5 - - 44 24 72 39 WSW 1003,1 10 30 0,2
21.10.2017 11:00:00 13,8 9,7 - - 41 22 63 34 SW 1003,1 10 36 0,0
21.10.2017 10:00:00 12,6 10,5 13,9 14,0 28 15 72 39 SW 1002,7 8 12 0,6
21.10.2017 09:00:00 12,5 10,1 - - 37 20 61 33 SW 1002,6 6 0 0,6
21.10.2017 08:00:00 12,5 10,2 - - 22 12 74 40 SW 1002,3 10 0 0,6
21.10.2017 07:00:00 13,7 9,2 - - 34 18 54 29 SW 1001,8 9 0 -
21.10.2017 06:00:00 14,0 9,6 - - 37 20 55 30 SW 1002,2 10 0 -
21.10.2017 05:00:00 14,0 10,7 - - 29 16 52 28 SW 1002,0 15 0 -
21.10.2017 04:00:00 13,1 11,5 - - 21 11 - - SSW 1002,3 18 0 -
21.10.2017 03:00:00 14,5 12,8 - - 24 13 - - SW 1002,4 14 0 -
21.10.2017 02:00:00 13,9 12,7 - - 16 9 - - SSW 1002,6 16 0 -
21.10.2017 01:00:00 14,1 12,7 - - 22 12 46 25 SSW 1002,4 14 - -
21.10.2017 00:00:00 15,4 14,5 - - 29 16 54 29 SSW 1002,8 7 0 -
20.10.2017 23:00:00 14,6 14,1 - - 34 18 55 30 S 1003,6 4,7 0 -
20.10.2017 22:00:00 15,1 12,6 - - 31 17 50 27 S 1004,6 10 0 -
20.10.2017 21:00:00 15,8 11,3 - - 24 13 - - S 1005,7 10 0 0,0
20.10.2017 20:00:00 15,4 10,9 - - 18 10 - - S 1006,8 10 0 0,0
20.10.2017 19:00:00 14,7 10,4 - - 28 15 - - S 1007,7 10 0 0,0
20.10.2017 18:00:00 14,3 10,0 - - 18 10 - - SSW 1008,2 10 0 0,0
20.10.2017 17:00:00 14,2 8,9 - - 21 11 - - SW 1008,8 10 0 0,0
20.10.2017 16:00:00 14,0 8,8 - - 21 11 - - SW 1009,4 10 6 0,0
20.10.2017 15:00:00 14,2 7,6 - - 21 11 50 27 WSW 1009,4 10 36 0,0
20.10.2017 14:00:00 14,1 7,1 - - 26 14 - - WSW 1009,5 10 42 0,0
20.10.2017 13:00:00 13,9 7,5 - - 22 12 - - W 1009,4 10 60 0,0
20.10.2017 12:00:00 13,0 5,9 - - 29 16 - - W 1009,2 10 60 0,0
20.10.2017 11:00:00 13,2 7,0 - - 28 15 - - W 1008,7 10 60 0,0
20.10.2017 10:00:00 12,4 8,2 14,0 14,0 28 15 - - W 1007,7 10 12 0,0
20.10.2017 09:00:00 11,7 8,6 - - 29 16 50 27 W 1006,3 10 0 0,0
20.10.2017 08:00:00 11,0 9,8 - - 22 12 54 29 W 1004,8 9 0 0,0
20.10.2017 07:00:00 12,0 9,2 - - 28 15 50 27 W 1003,1 10 0 0,0
20.10.2017 06:00:00 12,3 9,8 - - 34 18 65 35 W 1001,7 29 0 0,0
20.10.2017 05:00:00 12,6 10,1 - - 41 22 59 32 W 999,9 30 0 0,0
20.10.2017 04:00:00 12,9 10,8 - - 37 20 61 33 WSW 998,7 23 0 0,0
20.10.2017 03:00:00 13,0 11,2 - - 37 20 59 32 WSW 998,1 20 0 0,2
20.10.2017 02:00:00 12,9 11,3 - - 31 17 54 29 SW 997,8 12 0 0,8
20.10.2017 01:00:00 12,7 11,1 - - 29 16 54 29 SW 997,8 7 - 0,6
20.10.2017 00:00:00 13,0 10,6 - - 29 16 52 28 SW 997,9 14 0 0,2
19.10.2017 23:00:00 13,1 10,8 - - 18 10 - - SSW 998,0 10 0 0,0
19.10.2017 22:00:00 13,6 11,8 - - 15 8 50 27 SSW 998,0 10 0 0,2
19.10.2017 21:00:00 14,3 13,6 - - 39 21 57 31 S 997,3 4,0 0 1,4
19.10.2017 20:00:00 14,1 12,6 - - 37 20 55 30 S 998,3 9 0 2,8
19.10.2017 19:00:00 14,7 13,3 - - 31 17 46 25 S 999,1 6 0 3,6
19.10.2017 18:00:00 15,2 13,3 - - 26 14 - - S 999,9 6 0 0,4
19.10.2017 17:00:00 15,6 13,4 - - 21 11 - - S 1000,3 10 0 0,0
19.10.2017 16:00:00 15,7 13,6 - - 15 8 - - S 1000,8 10 0 0,0
19.10.2017 15:00:00 15,4 14,0 - - 11 6 - - S 1001,2 10 0 0,2
19.10.2017 14:00:00 14,8 13,7 - - 18 10 - - SW 1001,5 6 0 0,2
19.10.2017 13:00:00 16,6 15,3 - - 16 9 - - S 1001,7 5 0 0,0
19.10.2017 12:00:00 17,1 15,9 - - 16 9 - - SE 1002,4 6 0 0,0
19.10.2017 11:00:00 16,0 15,9 - - 13 7 - - SE 1003,2 3,0 0 0,0
19.10.2017 10:00:00 15,1 15,1 13,7 14,0 9 5 - - E 1003,7 2,5 0 0,0
19.10.2017 09:00:00 13,9 13,9 - - 8 4 - - NE 1004,4 0,5 0 0,4
19.10.2017 08:00:00 13,1 13,1 - - 5 3 - - ENE 1005,0 2,3 0 0,2
19.10.2017 07:00:00 12,7 12,7 - - 2 1 - - NNE 1005,6 1,0 0 0,0
19.10.2017 06:00:00 12,4 12,4 - - 5 3 - - N 1006,3 0,6 0 0,0
19.10.2017 05:00:00 12,4 12,3 - - 5 3 - - N 1006,7 0,2 0 0,0
19.10.2017 04:00:00 12,4 12,3 - - 4 2 - - NNW 1007,7 0,1 0 0,0
19.10.2017 03:00:00 12,3 12,2 - - 0 0 - - N 1008,0 0,1 0 0,0
19.10.2017 02:00:00 12,7 12,7 - - 5 3 - - E 1008,7 0,2 0 0,0
19.10.2017 01:00:00 12,8 12,7 - - 2 1 - - N 1009,2 0,4 - 0,0
19.10.2017 00:00:00 12,9 12,8 - - 5 3 - - WNW 1009,7 0,9 0 0,0
18.10.2017 23:00:00 13,1 12,9 - - 4 2 - - W 1009,8 0,3 0 0,0
18.10.2017 22:00:00 13,4 13,3 - - 5 3 - - NW 1009,5 0,3 0 0,0
18.10.2017 21:00:00 13,8 13,6 - - 8 4 - - W 1009,9 0,1 0 0,0
18.10.2017 20:00:00 13,7 13,5 - - 5 3 - - N 1010,0 0,2 0 0,0
18.10.2017 19:00:00 14,3 14,0 - - 4 2 - - E 1009,7 1,4 0 0,0
18.10.2017 18:00:00 14,7 14,3 - - 8 4 - - N 1009,3 1,4 0 0,0
18.10.2017 17:00:00 15,1 14,6 - - 0 0 - - N 1009,5 2,5 0 0,0
18.10.2017 16:00:00 14,8 14,2 - - 2 1 - - NE 1009,4 2,5 0 0,0
18.10.2017 15:00:00 14,3 13,5 - - 4 2 - - NNE 1009,6 4,0 0 0,0
18.10.2017 14:00:00 13,8 13,2 - - 5 3 - - ENE 1009,8 4,0 0 0,0
18.10.2017 13:00:00 13,2 12,6 - - 8 4 - - NE 1010,4 4,1 0 0,0
18.10.2017 12:00:00 12,6 12,0 - - 8 4 - - NE 1010,8 5 0 0,0
18.10.2017 11:00:00 12,0 11,3 - - 9 5 - - NE 1010,9 7 0 0,0
18.10.2017 10:00:00 11,6 10,9 13,7 14,2 8 4 - - NE 1011,0 10 0 0,0
18.10.2017 09:00:00 11,1 10,1 - - 8 4 - - NNE 1011,2 10 0 0,0
18.10.2017 08:00:00 10,7 9,8 - - 9 5 - - N 1011,1 10 0 0,0
18.10.2017 07:00:00 10,3 9,5 - - 9 5 - - N 1011,0 10 0 0,0
18.10.2017 06:00:00 10,1 9,2 - - 9 5 - - NE 1011,3 19 0 0,0
18.10.2017 05:00:00 9,8 8,9 - - 8 4 - - NE 1012,0 21 0 0,0
18.10.2017 04:00:00 9,6 8,6 - - 13 7 - - NNE 1012,6 25 0 0,0
18.10.2017 03:00:00 9,7 8,9 - - 13 7 - - NNE 1013,2 22 0 0,2
18.10.2017 02:00:00 9,7 9,1 - - 13 7 - - NNE 1013,9 20 0 0,4
18.10.2017 01:00:00 9,9 9,2 - - 16 9 - - NNE 1014,4 19 - 2,4
18.10.2017 00:00:00 9,9 8,7 - - 13 7 - - N 1015,3 14 0 0,0
17.10.2017 23:00:00 9,7 9,0 - - 13 7 - - N 1015,7 10 0 0,6
17.10.2017 22:00:00 9,9 9,1 - - 9 5 - - N 1016,0 10 0 0,0
17.10.2017 21:00:00 10,1 9,3 - - 8 4 - - E 1016,5 10 0 0,4
17.10.2017 20:00:00 10,3 9,6 - - 8 4 - - - 1016,5 7 0 0,8
17.10.2017 19:00:00 10,5 9,4 - - 9 5 - - NNE 1016,7 10 0 0,6
17.10.2017 18:00:00 11,4 9,4 - - 2 1 - - - 1017,4 10 0 0,2
17.10.2017 17:00:00 11,7 9,1 - - 4 2 - - S 1017,9 10 0 0,8
17.10.2017 16:00:00 12,4 10,5 - - 4 2 - - - 1018,5 8 0 0,8
17.10.2017 15:00:00 12,7 10,5 - - 5 3 - - W 1019,2 7 0 0,6
17.10.2017 14:00:00 13,3 10,6 - - 2 1 - - ESE 1019,6 10 0 0,0
17.10.2017 13:00:00 13,1 10,6 - - 2 1 - - - 1020,6 10 0 0,0
17.10.2017 12:00:00 12,9 9,4 - - 4 2 - - - 1020,9 10 0 0,0
17.10.2017 11:00:00 12,4 9,5 - - 2 1 - - - 1020,8 10 0 0,0
17.10.2017 10:00:00 10,2 9,7 14,4 14,2 2 1 - - - 1020,8 10 0 0,0
17.10.2017 09:00:00 7,9 7,2 - - 4 2 - - - 1020,7 10 0 0,0
17.10.2017 08:00:00 6,4 5,5 - - 2 1 - - - 1020,2 10 0 0,0
17.10.2017 07:00:00 8,6 7,1 - - 4 2 - - - 1020,0 10 0 0,0
17.10.2017 06:00:00 9,0 6,5 - - 5 3 - - WSW 1019,6 16 0 0,0
17.10.2017 05:00:00 10,8 7,7 - - 9 5 - - WSW 1019,5 18 0 0,0
17.10.2017 04:00:00 11,3 7,5 - - 13 7 - - WSW 1019,8 18 0 0,0
17.10.2017 03:00:00 13,1 8,3 - - 18 10 - - WSW 1019,9 18 0 0,0

tt = temperature
td = dewpoint
tt -20cm = temperature -20cm
tt -100cm = temperature -100cm
ff = wind speed
fx = gusts
dd = wind direction
ppp = reduced air pressure
vv = visibility
sd = sunshine duration
rr = precipitation

Next stations